Regional Weather Roundup
Issued by NWS Mt. Holly, NJ

Home | Current Version | Previous Version | Text Only | Print | Product List | Glossary On
Versions: 1 2 3 4 5 6 7 8 9 10 11 12 13 14 15 16 17 18 19 20 21 22 23 24 25 26 27 28 29 30 31 32 33 34 35 36 37 38 39 40 41 42 43 44 45 46 47 48 49 50
000
ASUS41 KPHI 040812
RWRPHI

REGIONAL WEATHER ROUNDUP
NATIONAL WEATHER SERVICE MOUNT HOLLY NJ
400 AM EDT SAT JUL 04 2015

NOTE:  "FAIR" INDICATES FEW OR NO CLOUDS BELOW 12,000 FEET WITH NO
SIGNIFICANT WEATHER AND/OR OBSTRUCTIONS TO VISIBILITY.

 * = STATION DOES NOT REPORT PRECIPITATION (E.G. RAIN, SNOW, ETC.)
        OR FOG.

NJZ015>026-040900-
SOUTHERN NEW JERSEY

CITY           SKY/WX    TMP DP  RH WIND       PRES   REMARKS
POMONA         CLOUDY    69  67  93 E3        29.93F
RIO GRANDE*    CLOUDY    72  64  78 E7        29.92F
MILLVILLE      CLOUDY    68  66  93 E5        29.92F
WRIGHTSTOWN    CLOUDY    65  65  98 E2        29.93S
MOUNT HOLLY    CLOUDY    66  64  93 CALM      29.94S
TRENTON        LGT RAIN  67  63  87 E6        29.94F

$$
NJZ001>014-040900-
NORTHERN NEW JERSEY

CITY           SKY/WX    TMP DP  RH WIND       PRES   REMARKS
SUSSEX         CLOUDY    64  61  90 CALM      29.96F
ANDOVER*         N/A     67  61  81 CALM      29.97S
MORRISTOWN     CLOUDY    66  63  88 CALM      29.97S
NEWARK         LGT RAIN  70  62  76 CALM      29.96S
TETERBORO      LGT RAIN  70  61  73 CALM      29.95S
CALDWELL       CLOUDY    67  62  84 CALM      29.97S
SOMERVILLE     CLOUDY    66  64  93 CALM      29.94F
ALLAIRE*       CLOUDY    68  61  77 E5        29.96S
TOMS RIVER*    CLOUDY    64  63  94 CALM      29.95F

$$
PAZ043-044-047-054-055-060>062-066>071-040900-
EASTERN PENNSYLVANIA

CITY           SKY/WX    TMP DP  RH WIND       PRES   REMARKS
PHILADELPHIA   CLOUDY    70  65  84 E3        29.94S
NORTH PHILA    CLOUDY    70  63  78 E5        29.96S
BLUE BELL      CLOUDY    68  64  88 CALM      29.93F
DOYLESTOWN     CLOUDY    66  63  90 CALM      29.94F
QUAKERTOWN*    CLOUDY    68  63  83 CALM      29.96S
POTTSTOWN      CLOUDY    68  64  87 CALM      29.95F
LANCASTER      CLOUDY    65  62  90 E3        29.93F
COATESVILLE    CLOUDY    66  66 100 CALM      29.95F FOG
READING        LGT RAIN  67  62  84 CALM      29.94R
ALLENTOWN      CLOUDY    71  61  70 E3        29.94F
MOUNT POCONO   NOT AVBL
HAZLETON       LGT RAIN  64  61  88 CALM      30.00S
WILKES BARRE   CLOUDY    69  60  73 E3        29.95S

$$
DEZALL-MDZ008-012-015-019-020-040900-
DELAWARE AND EASTERN MARYLAND

CITY           SKY/WX    TMP DP  RH WIND       PRES   REMARKS
WILMINGTON     CLOUDY    70  66  87 E6        29.93F
DOVER          CLOUDY    72  71  96 E9        29.89S
GEORGETOWN     CLOUDY    70  67  90 NE6       29.89F
EASTON         CLOUDY    69  69 100 E5        29.92F FOG
PATUXENT       CLOUDY    72  69  90 E10       29.86F
OCEAN CITY     CLOUDY    73  69  87 E9        29.87F
WALLOPS ISLAND CLOUDY    74  72  93 E10       29.85F
CAMBRIDGE      CLOUDY    72  68  88 NE3       29.87F
SALISBURY      CLOUDY    70  68  93 NE6       29.87F

$$
PAZ001-021-NYZ056-072-MDZ011-DCZ001-040900-
OTHER NEARBY LOCATIONS

CITY           SKY/WX    TMP DP  RH WIND       PRES   REMARKS
HARRISBURG     CLOUDY    67  62  84 SE5       29.92S
STATE COLLEGE  LGT RAIN  64  63  98 CALM      29.92S
WILLIAMSPORT   RAIN      66  63  90 E5        29.91F FOG
BINGHAMTON     LGT RAIN  62  58  86 S3        29.95F
NEW YORK CITY  CLOUDY    71  58  63 SE3       29.99S
BALTIMORE      CLOUDY    70  66  87 E6        29.89F
WASHINGTON DC  CLOUDY    73  68  84 NE5       29.89F

$$



USA.gov is the U.S. government's official web portal to all federal, state and local government web resources and services.